Location: Brno
(49.2000°N, 16.6330°E)
Time: 15:29:31
(UTC+02:00)

BREEZE M DEB (TANK) - Visible Passes

Search period start: 24 October 2014 00:00
Search period end: 02 November 2014 23:00
Orbit: 307 x 12185 km, 49.5° (Epoch: 23 October)

Date Brightness Start Highest point End Pass type
(mag) Time Alt. Az. Time Alt. Az. Time Alt. Az.
24 Oct 5.9 18:03:01 10° S 18:37:10 35° SE 18:46:56 12° E visible
24 Oct 5.5 22:30:10 10° WSW 22:42:14 40° WSW 22:42:14 40° WSW visible
25 Oct 6.2 17:32:32 10° S 18:06:51 32° SE 18:17:53 10° E visible
25 Oct 5.1 21:57:59 10° WSW 22:14:00 53° WSW 22:14:00 53° WSW visible
26 Oct 4.7 20:25:28 10° WSW 20:45:44 68° SW 20:45:44 68° SW visible
27 Oct 4.5 19:52:39 10° WSW 20:17:21 73° SSE 20:17:26 73° SSE visible
28 Oct 4.5 19:19:37 10° SW 19:47:33 69° SSE 19:49:06 61° ESE visible
29 Oct 4.8 18:46:25 10° SW 19:17:39 64° SSE 19:20:44 46° E visible
29 Oct 6.7 23:15:55 10° WNW 23:16:00 10° WNW 23:16:00 10° WNW visible
30 Oct 5.0 18:13:12 10° SW 18:47:38 60° SSE 18:52:20 34° E visible
30 Oct 6.4 22:44:54 10° W 22:47:36 16° W 22:47:36 16° W visible
31 Oct 5.3 17:40:03 10° SW 18:17:28 55° SSE 18:23:54 25° E visible
31 Oct 6.1 22:13:33 10° W 22:19:09 24° W 22:19:09 24° W visible
01 Nov 5.6 17:07:07 10° SSW 17:47:11 51° SSE 17:55:26 17° E visible
01 Nov 5.7 21:41:49 10° W 21:50:41 33° W 21:50:41 33° W visible
02 Nov 5.9 16:34:29 10° SSW 17:16:45 47° SE 17:26:57 11° ENE visible
02 Nov 5.3 21:09:41 10° W 21:22:12 45° W 21:22:12 45° W visible
